Main page
METAR-TAF:

METAR-TAF

Airports :

Kharg Airport

Kharg Island, Iran

latitude: 29-15-34N, longitude: 50-19-24E, elevation: 5 m

Current weather observation

The report was made 34 minutes ago, at 13:00 UTC
Wind 17 kt from the Northeast
Temperature 24°C
Humidity 74%
Pressure 1013 hPa
Visibility 10 km or more
Scattered clouds at a height of 4000 ft
Overcast at a height of 9000 ft

METAR: OIBQ 151300Z 04017KT 9999 SCT040 OVC090 24/19 Q1013

Time: 17:04 (13:34 UTC)


TAF: missing

Weather observations and forecasts of more than 4000 airports (METAR and TAF reports).

The available stations are represented by yellow and red dots on the map.

Hover mouse over dot to see the name of the station.

Then click to see weather observations and forecasts.

To change the map : click on the green buttons with a black cross to zoom in, on the green button with a dash to zoom out, or on the green arrows for adjacent maps.


METAR-TAF: